Other Surface Observations
Issued by NWS

Home | Current Version | Previous Version | Text Only | Print | Product List | Glossary On
Versions: 1 2 3 4 5 6 7 8 9 10 11 12 13 14 15 16 17 18 19 20 21 22 23 24 25 26 27 28 29 30 31 32 33 34 35 36 37 38 39 40 41 42 43 44 45 46 47 48 49 50
000
SXUS52 KTAE 220318
OSOTAE
OSOTAE
North Florida/South Alabama/Southwest Georgia Weather Roundup
National Weather Service Tallahassee Florida
1100 PM EDT TUE OCT 21 2014

Note: "fair" indicates few or no clouds below 12,000 feet with no
significant weather and/or obstructions to visibility.

!FLZ017-115-028-034-025-220400
...North Florida...

CITY           SKY/WX    TMP DP  RH WIND       PRES   REMARKS
TALLAHASSEE    PTCLDY    59  53  80 CALM      30.00R
APALACHICOLA   CLEAR     64  59  83 N3        30.00R
PERRY          CLEAR     59  59 100 CALM      30.00S
CROSS CITY       N/A     67  63  87 NW3       29.98R
JACKSONVILLE   CLEAR     63  63 100 CALM      29.97R
$$

!FLZ112-006-005-002-011-220400
...Florida Panhandle...

CITY           SKY/WX    TMP DP  RH WIND       PRES   REMARKS
MARIANNA       LGT RAIN  60  58  92 CALM      30.01R
BONIFAY        NOT AVBL
PANAMA CITY NW FAIR      60  55  83 CALM      30.00R
TYNDALL AFB    CLEAR     61  57  87 CALM      30.01R
TYND DRONE APT FAIR      61  58  89 MISG      30.00R
DE FUNIAK SPR  FAIR      62  55  78 N6        30.02S
EGLIN AFB      PTCLDY    63  52  67 CALM      30.01R
DESTIN         CLEAR     68  58  70 N3        30.01R
HURLBURT       CLEAR     60  53  77 N6        30.01R
CRESTVIEW      CLEAR     55  53  93 N3        30.03R
PENSACOLA      CLEAR     66  54  65 N5        30.01R
$$

!ALZ063-066-220400
...South Alabama...

CITY           SKY/WX    TMP DP  RH WIND       PRES   REMARKS
DOTHAN         CLEAR     57  53  86 CALM      30.05R
OZARK CAIRNS   CLEAR     59  54  85 CALM      30.02R
FT RUCKER HELI CLEAR     56  54  93 CALM      30.01R
RUCKER HELI 3  FAIR      57  55  92 NW2       30.04R
RUCKER HELI 2  FAIR      58  54  86 CALM      30.02R
FLORALA APT    CLEAR     57  53  86 CALM      30.04R
ANDALUSIA      CLEAR     62  55  77 CALM      30.03R
TROY           CLEAR     56  53  90 CALM      30.03R
EUFALA         FAIR      56  53  90 CALM      30.01R
MOBILE         CLEAR     60  55  83 N3        30.04R
$$

!GAZ120>161-220400
...Southwest and South Central Georgia...

CITY           SKY/WX    TMP DP  RH WIND       PRES   REMARKS
THOMASVILLE    FAIR      59  59 100 CALM      30.01S
BAINBRIDGE     CLEAR     66  55  68 N3        30.01R
MOODY AFB      CLEAR     61  54  77 S1        29.99R
VALDOSTA       CLEAR     56  52  86 S3        30.00R
MOULTRIE       CLEAR     59  59 100 CALM      30.01S
BLAKELY        CLEAR     57  55  94 CALM        N/A
ALBANY         CLEAR     59  54  83 CALM      30.02R
TIFTON         FAIR      60  55  84 CALM      30.00R
FITZGERALD     FAIR      58  55  90 CALM      30.02S
CORDELE        FAIR      59  55  85 CALM      30.01R
AMERICUS       FAIR      55  54  94 CALM      30.02R
HOMERVILLE     FAIR      61  57  88 CALM      29.99S
$$

!GMZ750-755-770-775-220400
...Coastal and Buoy Obs...

STATION/POSITION TIME  TEMP    WIND        PRES    VSBY  WAVE
                       AIR SEA DIR/SP/G                  HT/PER
                 (UTC) (F)     (DEG/KT/KT) (MB)    (MI)  (FT/S)
KEATON BEACH     0300   70     330/  4/  6 1015.8R
CEDAR KEY        0254   72     340/  3/  5 1015.5R
C TOWER          0300   74     310/  6/  8 1015.8R
APALACHICOLA BUO 0300   76 82   40/  4/  6 1015.5R         1/ 4
PANAMA CITY BUOY 0236   76 81   50/  6/  8 1015.9R         1/ 4
MOBILE BUOY      0239   75 79   50/ 10/ 12 1017.0R         1/ 4
ORANGE BCH AL BU 0300   76 78   20/ 14/ 16 1015.8R         1/ 5
$$



USA.gov is the U.S. government's official web portal to all federal, state and local government web resources and services.